Salina, KS

5:39 AM CDT on April 25, 2017 (GMT -0500)
Salina Municipal

Weather History for KSLN - November, 2010

Change the Weather History Date:

Friday, November 26, 2010

  Actual Average Record
Temperature  
Mean Temperature 36 °F 38 °F  
Max Temperature 53 °F 49 °F 76 °F (1910)
Min Temperature 18 °F 28 °F -2 °F (1975)
Degree Days  
Heating Degree Days 29 27  
Month to date heating degree days 549 524  
Since 1 July heating degree days 746 842  
Cooling Degree Days 0 0  
Month to date cooling degree days 0 0  
Year to date cooling degree days 1872 1646  
Moisture  
Dew Point 17 °F    
Average Humidity 51    
Maximum Humidity 77    
Minimum Humidity 25    
Precipitation  
Precipitation 0.00 in 0.03 in 0.93 in (1935)
Month to date precipitation 3.18 1.10  
Year to date precipitation 27.60 30.41  
Sea Level Pressure  
Sea Level Pressure 30.16 in    
Wind  
Wind Speed 10 mph (WSW)    
Max Wind Speed 18 mph    
Max Gust Speed 25 mph    
Visibility 10 miles    
Events      
T = Trace of Precipitation, MM = Missing Value Source: NWS Daily Summary

Daily Weather History Graph

Daily Weather History Graph

Search for Another Location

Airport or City:

Trip Planner

Search our weather history database for the weather conditions in past years. The results will help you decide how hot, cold, wet, or windy it might be!

Date:

Astronomy

Nov. 26, 2010 Rise Set
Actual Time 7:24 AM CST 5:10 PM CST
Civil Twilight 6:55 AM CST 5:39 PM CST
Nautical Twilight 6:23 AM CST 6:12 PM CST
Astronomical Twilight 5:51 AM CST 6:44 PM CST
Moon 10:19 PM CST (11/26) 11:33 AM CST (11/26)
Length of Visible Light 10h 44m
Length of Day
9h 45m
Waning Gibbous, 73% of the Moon is Illuminated
Nov 26
Waning Gibbous
Nov 28
Last Quarter
Dec 5
New
Dec 13
First Quarter
Dec 21
Full

Hourly Weather History & Observations

Time (CST) Temp. Windchill Dew Point Humidity Pressure Visibility Wind Dir Wind Speed Gust Speed Precip Events Conditions
12:53 AM 19.9 °F 10.1 °F 14.0 °F 78% 30.17 in 10.0 mi SSW 8.1 mph - N/A   Clear
1:53 AM 23.0 °F 13.1 °F 12.2 °F 63% 30.13 in 10.0 mi SW 9.2 mph - N/A   Clear
2:53 AM 24.1 °F 15.2 °F 12.0 °F 60% 30.17 in 10.0 mi WSW 8.1 mph - N/A   Clear
3:53 AM 19.0 °F 13.9 °F 10.9 °F 71% 30.15 in 10.0 mi South 3.5 mph - N/A   Clear
4:53 AM 25.0 °F 13.6 °F 12.0 °F 58% 30.14 in 10.0 mi West 12.7 mph - N/A   Clear
5:53 AM 23.0 °F 13.9 °F 10.9 °F 60% 30.16 in 10.0 mi West 8.1 mph - N/A   Clear
6:53 AM 21.9 °F 14.5 °F 12.0 °F 66% 30.18 in 10.0 mi WSW 5.8 mph - N/A   Clear
7:53 AM 25.0 °F 14.2 °F 12.0 °F 58% 30.21 in 10.0 mi WSW 11.5 mph - N/A   Clear
8:53 AM 30.0 °F 23.2 °F 14.0 °F 51% 30.22 in 10.0 mi WSW 6.9 mph - N/A   Clear
9:53 AM 37.0 °F 32.4 °F 14.0 °F 39% 30.22 in 10.0 mi WSW 5.8 mph - N/A   Clear
10:53 AM 45.0 °F 38.5 °F 10.0 °F 24% 30.22 in 10.0 mi West 13.8 mph - N/A   Clear
11:53 AM 48.0 °F - 15.1 °F 27% 30.18 in 10.0 mi WNW 17.3 mph - N/A   Clear
12:53 PM 50.0 °F - 18.0 °F 28% 30.15 in 10.0 mi West 18.4 mph - N/A   Clear
1:53 PM 53.1 °F - 19.9 °F 27% 30.13 in 10.0 mi WNW 13.8 mph 18.4 mph N/A   Clear
2:53 PM 53.1 °F - 21.0 °F 29% 30.13 in 10.0 mi WNW 16.1 mph - N/A   Clear
3:53 PM 52.0 °F - 21.9 °F 31% 30.14 in 10.0 mi WNW 12.7 mph - N/A   Clear
4:53 PM 46.0 °F 41.9 °F 24.1 °F 42% 30.14 in 10.0 mi West 8.1 mph - N/A   Clear
5:53 PM 41.0 °F 36.4 °F 23.0 °F 49% 30.14 in 10.0 mi SSW 6.9 mph - N/A   Clear
6:53 PM 39.9 °F 33.4 °F 23.0 °F 51% 30.16 in 10.0 mi WSW 10.4 mph - N/A   Clear
7:53 PM 37.9 °F 31.5 °F 23.0 °F 55% 30.14 in 10.0 mi WSW 9.2 mph - N/A   Clear
8:53 PM 36.0 °F 28.5 °F 23.0 °F 59% 30.14 in 10.0 mi WSW 10.4 mph - N/A   Clear
9:53 PM 36.0 °F 29.0 °F 23.0 °F 59% 30.14 in 10.0 mi SW 9.2 mph - N/A   Clear
10:53 PM 35.1 °F 30.1 °F 21.9 °F 59% 30.15 in 10.0 mi West 5.8 mph - N/A   Clear
11:53 PM 32.0 °F - 21.9 °F 66% 30.16 in 10.0 mi Calm Calm - N/A   Clear